EGSSEGFF

Guest
Details From EGSS - London Stansted
To EGFF - Cardiff
Flight Number -
Tags generated
Created
Modified
Stats Distance 137 nm / 253 km
Max Altitude 10,500 ft / 3,200 m
Waypoints 3
Social Downloads 1
Likes 0
Share VATSIM

Download

Looking for another format? Having issues loading an existing format? Contact us
Advertisement - Login to hide

Notes

Basic altitude profile: - Ascent Rate: 2500ft/min - Ascent Speed: 250kts - Cruise Altitude: 35000ft - Cruise Speed: 420kts - Descent Rate: 1500ft/min - Descent Speed: 250kts

Route

EGSS MALBY EGFF

ID Type Via Altitude Latitude Longitude Leg Dist Tot Dist Heading (true) Name
O EGSS APT - 0 ft / 0 m 51.88510˚ 0.23496˚ - 0 nm - London Stansted
MALBY FIX - 10,500 ft / 3,200 m 51.58115˚ -2.06172˚ 87 nm 87 nm 259° / 257° -
O EGFF APT - 0 ft / 0 m 51.39656˚ -3.34320˚ 49 nm 136 nm 257° / 256° Cardiff

Altitude Profile

Advertisement - Login to hide

EGSS

Details ICAO EGSS (STN)
Name London Stansted
Region United Kingdom
Timezone Europe/London (UTC+1.0)
Stats Elevation 348 ft / 106 m (AMSL)
Location 51.885097° 0.234962°
Runways 1
Magnetic Variation 0.298° W

METAR

EGSS 230750Z AUTO 01013KT 7000 OVC004 10/09 Q1024

Decode

TAF

TAF AMD EGSS 230755Z 2307/2412 02012KT 7000 BKN004 BECMG 2307/2309 9999 BKN010 BECMG 2309/2311 FEW045 PROB30 TEMPO 2318/2408 6000 SHRA

Decode

Departure Runways

ID Width Length Bearing (true) Bearing (mag) Surface Threshold Offset Overrun Length
04 151 ft / 46 m 10,011 ft / 3,052 m 42.79° 43.09° Asphalt 994 ft / 303 m 0 ft / 0 m
22 151 ft / 46 m 10,011 ft / 3,052 m 222.81° 223.11° Asphalt 0 ft / 0 m 0 ft / 0 m

EGFF

Details ICAO EGFF (CWL)
Name Cardiff
Region United Kingdom
Timezone Europe/London (UTC+1.0)
Stats Elevation 220 ft / 67 m (AMSL)
Location 51.396565° -3.343202°
Runways 1
Magnetic Variation 1.512° W

METAR

EGFF 230750Z AUTO 06011KT 9999 BKN012 11/08 Q1024

Decode

TAF

TAF EGFF 230509Z 2306/2406 04008KT CAVOK PROB30 2306/2308 7000 BKN012 PROB30 TEMPO 2403/2406 4000 SHRA

Decode

Destination Runways

ID Width Length Bearing (true) Bearing (mag) Surface Threshold Offset Overrun Length
12 131 ft / 40 m 7,831 ft / 2,387 m 116.82° 118.33° Asphalt 715 ft / 218 m 0 ft / 0 m
30 131 ft / 40 m 7,831 ft / 2,387 m 296.84° 298.35° Asphalt 594 ft / 181 m 0 ft / 0 m

Approach Navaids

Runway Type Ident Frequency Range Bearing (true) Bearing (mag) Slope Elevation
12 Localiser ICDF 110.70 MHz 18 nm / 33 km 116.85° 118.36° - 220 ft / 67 m (AMSL)
12 Glidescope ICDF 110.70 MHz 10 nm / 19 km 116.83° 118.34° 3.00° 220 ft / 67 m (AMSL)
12 DME ICDF 110.70 MHz 18 nm / 33 km - - - 281 ft / 86 m (AMSL)
30 Localiser ICWA 110.70 MHz 18 nm / 33 km 296.82° 298.33° - 220 ft / 67 m (AMSL)
30 Glidescope ICWA 110.70 MHz 10 nm / 19 km 296.83° 298.34° 3.00° 220 ft / 67 m (AMSL)
30 DME ICWA 110.70 MHz 18 nm / 33 km - - - 220 ft / 67 m (AMSL)

Popular Alternatives